sat.trackr.live / text

‹ back to catalog

ONEWEB-0198

NORAD 48216 · 2021-031G

PAYLOAD ACTIVE UNKNOWN

§ Identity

Operator
Country
UK
Launch date
2021-04-25
Launch site
VOSTO
Launch vehicle
Mass (kg)
RCS (m²)

Purposes: comms

External: N2YO · Heavens-Above · Gunter

§ Orbital elements

Epoch: 2026-09-19T18:22:08.114880Z

Period
109.55 min
Inclination
87.8884°
Eccentricity
0.0001504
Mean motion
13.14502173 rev/d
Perigee alt
1,204.7 km
Apogee alt
1,206.9 km
Semi-major
7,583.9 km
B*
-1.1316e-4
RAAN
270.8389°
Arg perigee
86.8535°
Mean anomaly
273.2766°
Rev number
26,091

§ Raw data

ONEWEB-01981 48216U 21031G   26262.76537170 -.00000029  00000+0 -11316-3 0  99992 48216  87.8884 270.8389 0001504  86.8535 273.2766 13.14502173260916

JSON: /api/v1/satellites/48216 · /tle

For live sub-satellite position, see the globe view (requires WebGL).

§ Visibility from observer

Set your observer location to see the next 7 days of passes ≥ 10°. The values pass through the URL so the page stays shareable.

No JS? Fill the form by hand. The geolocation button needs JavaScript.